Location: Udine
(46.0620°N, 13.2420°E)
Time: 01:39:53
(UTC+02:00)

ISS - Pass Details

Date: 09 May 2021
Orbit: 417 x 422 km, 51.6° (Epoch: 14 June)

Event Time Altitude Azimuth Distance (km) Brightness Sun altitude
Exits shadow 03:35:29 11° 296° (WNW) 1,455 -1.1 -17.9°
Maximum altitude 03:38:23 30° 359° (N) 785 -1.9 -17.6°
Drops below altitude 10° 03:41:26 10° 63° (ENE) 1,510 0.1 -17.2°
Sets 03:43:42 0° 74° (ENE) 2,375 1.0 -17.0°
